DW5918 Weather Reports


Display with metric or nautical units.
time (UTC)temp
F
wind
direction
speed
MPH
gust
MPH
rain 1hr
in
rain 24hr
in
rain mn
in
humidity
%
barometer
mb
20260906191516 61 65 0.0 6.0 0.01 0.14 0.14 51 1015.2
20260906190105 60 63 0.0 1.0 0.01 0.14 0.14 13 1015.2
20260906184526 59 63 0.0 8.0 0.01 0.14 0.14 21 1015.3
20260906183121 59 84 6.0 12.0 0.01 0.14 0.14 16 1015.4
20260906181548 61 65 11.0 23.0 0.00 0.13 0.13 58 1015.5
20260906174607 64 59 2.0 7.0 0.00 0.13 0.13 68 1015.1
20260906173009 63 42 0.0 5.0 0.00 0.13 0.13 68 1015.1
20260906171556 63 67 2.0 8.0 0.00 0.13 0.13 68 1015.3
20260906170009 63 65 6.0 9.0 0.00 0.13 0.13 68 1015.3
20260906164603 62 76 2.0 10.0 0.00 0.13 0.13 67 1015.5
20260906163029 62 69 4.0 11.0 0.00 0.13 0.13 62 1015.4
20260906161617 61 71 2.0 10.0 0.00 0.13 0.13 60 1015.6
20260906160028 61 61 7.0 11.0 0.00 0.13 0.13 60 1015.7
20260906154621 60 65 3.0 12.0 0.00 0.13 0.13 44 1015.8
20260906153027 60 76 4.0 11.0 0.01 0.13 0.13 33 1015.9
20260906151618 59 82 6.0 10.0 0.01 0.13 0.13 21 1015.9
20260906150036 58 88 6.0 12.0 0.01 0.13 0.13 5 1016.1
20260906143047 58 62 7.0 12.0 0.00 0.12 0.12 1 1015.9
20260906141507 58 55 0.0 5.0 0.00 0.12 0.12 1 1015.7
20260906140110 57 78 4.0 10.0 0.00 0.12 0.12 1 1015.6
20260906134523 57 72 5.0 9.0 0.00 0.12 0.12 1 1015.6
20260906133119 57 67 3.0 6.0 0.00 0.12 0.12 1 1015.5
20260906131539 57 69 5.0 8.0 0.00 0.12 0.12 1 1015.4
20260906130131 57 64 3.0 8.0 0.00 0.12 0.12 1 1015.6
20260906124548 57 65 2.0 6.0 0.00 0.12 0.12 1 1015.4
20260906123010 57 61 3.0 5.0 0.00 0.12 0.12 1 1015.3
20260906121604 56 57 3.0 5.0 0.01 0.12 0.12 1 1015.3
20260906120017 56 61 1.0 4.0 0.04 0.12 0.12 1 1015.1
20260906114634 56 61 2.0 5.0 0.06 0.12 0.12 1 1015.0
20260906111627 56 61 0.0 0.0 0.11 0.11 0.11 1 1014.7
20260906110034 56 61 0.0 2.0 0.08 0.08 0.08 1 1014.5
20260906104628 56 61 0.0 0.0 0.05 0.05 0.05 1 1014.0
20260906103037 56 61 2.0 5.0 0.02 0.02 0.02 1 1013.8
20260906101626 56 59 0.0 8.0 0.00 0.00 0.00 1 1013.8
20260906100053 56 70 3.0 6.0 0.00 0.00 0.00 1 1013.6
20260906094516 56 58 0.0 3.0 0.00 0.00 0.00 1 1013.4
20260906093109 56 58 1.0 3.0 0.00 0.00 0.00 1 1013.3
20260906091524 56 58 0.0 1.0 0.00 0.00 0.00 1 1013.1
20260906090119 56 58 1.0 5.0 0.00 0.00 0.00 1 1013.1
20260906084533 56 59 2.0 4.0 0.00 0.00 0.00 1 1013.1
20260906083129 56 59 0.0 4.0 0.00 0.00 0.00 1 1013.1
20260906080004 57 57 2.0 6.0 0.00 0.00 0.00 1 1013.1
20260906074607 57 59 2.0 6.0 0.00 0.00 0.00 1 1013.3
20260906073034 57 67 2.0 4.0 0.00 0.00 0.00 1 1013.2
20260906071614 57 73 1.0 3.0 0.00 0.00 0.00 1 1013.0
20260906070039 57 73 1.0 6.0 0.00 0.00 0.00 1 1012.9
20260906064621 58 64 0.0 3.0 0.00 0.00 0.00 1 1012.9
20260906063049 58 65 0.0 4.0 0.00 0.00 0.00 1 1013.1
20260906061509 59 65 2.0 5.0 0.00 0.00 0.00 3 1013.2
20260906060056 59 64 0.0 2.0 0.00 0.00 0.00 13 1013.3
20260906054520 58 64 0.0 3.0 0.00 0.00 0.00 8 1013.4
20260906053112 59 61 3.0 5.0 0.00 0.00 0.00 1 1013.5
20260906051523 59 46 0.0 3.0 0.00 0.00 0.00 3 1013.3
20260906044535 59 68 2.0 5.0 0.00 0.00 0.00 1 1013.2
20260906043127 60 45 3.0 6.0 0.00 0.00 0.00 1 1013.0
20260906041541 60 61 1.0 4.0 0.00 0.00 0.00 1 1013.1
20260906040004 60 61 0.0 4.0 0.00 0.00 0.00 1 1013.1
20260906034554 61 61 2.0 5.0 0.00 0.00 0.00 1 1012.9
20260906033012 61 71 2.0 5.0 0.00 0.00 0.00 1 1012.7
20260906031611 62 71 3.0 6.0 0.00 0.00 0.00 10 1012.7
20260906030025 62 64 0.0 1.0 0.00 0.00 0.00 31 1012.5
20260906024618 62 64 0.0 3.0 0.00 0.00 0.00 43 1012.5
20260906023101 63 63 1.0 4.0 0.00 0.00 0.00 43 1012.4
20260906021633 63 63 3.0 5.0 0.00 0.00 0.00 46 1012.4
20260906020051 63 60 2.0 6.0 0.00 0.00 0.00 47 1012.3
20260906014643 63 65 3.0 6.0 0.00 0.00 0.00 42 1012.3
20260906013058 62 66 3.0 5.0 0.00 0.00 0.00 24 1012.2
20260906011516 62 67 0.0 1.0 0.00 0.00 0.00 21 1012.2
20260906010106 62 67 2.0 5.0 0.00 0.00 0.00 18 1012.1
20260906004522 62 72 0.0 0.0 0.00 0.00 0.00 38 1012.0
20260906003122 62 72 0.0 0.0 0.00 0.00 0.00 41 1011.9
20260906001540 63 72 0.0 0.0 0.00 0.00 0.00 46 1011.8
20260906000132 63 72 0.0 0.0 0.00 0.00 0.00 50 1011.7
20260905234554 64 72 0.0 0.0 0.00 0.00 0.00 54 1011.4
20260905233009 65 72 0.0 0.0 0.00 0.00 0.00 58 1011.2
20260905231558 65 72 0.0 0.0 0.00 0.00 0.00 62 1011.1
20260905230019 66 72 0.0 0.0 0.00 0.00 0.00 65 1011.1
20260905224611 67 72 0.0 0.0 0.00 0.00 0.00 67 1011.1
20260905223036 67 74 1.0 7.0 0.00 0.00 0.00 68 1011.0
20260905221629 68 94 0.0 1.0 0.00 0.00 0.00 68 1010.9
20260905220037 69 94 0.0 1.0 0.00 0.00 0.00 69 1010.7
20260905214632 69 94 0.0 1.0 0.00 0.00 0.00 68 1010.6
20260905213049 71 100 0.0 1.0 0.00 0.00 0.00 67 1010.4
20260905211505 71 100 0.0 2.0 0.00 0.00 0.00 68 1010.4
20260905210055 71 100 0.0 1.0 0.00 0.00 0.00 68 1009.9
20260905204511 70 99 0.0 0.0 0.00 0.00 0.00 68 1010.1
20260905203107 70 99 0.0 1.0 0.00 0.00 0.00 68 1010.1
20260905201526 70 99 0.0 0.0 0.00 0.00 0.00 68 1010.2
20260905200114 70 99 0.0 1.0 0.00 0.00 0.00 68 1010.0
20260905194525 69 99 0.0 4.0 0.00 0.00 0.00 68 1010.1
20260905193113 68 59 0.0 2.0 0.00 0.00 0.00 68 1010.0